Location: Voyageurs National Park
(48.5020°N, 92.9292°W)
Time: 09:37:35
(UTC-06:00)

Cosmos 614 Rocket - Pass Details

Date: 19 January 2018
Orbit: 734 x 763 km, 74.1° (Epoch: 24 February)

Event Time Altitude Azimuth Distance (km) Brightness Sun altitude
Exits shadow 05:45:39 22° 216° (SW) 1,584 5.4 -21.0°
Maximum altitude 05:48:56 68° 295° (WNW) 798 3.8 -20.5°
Drops below altitude 10° 05:54:01 10° 19° (NNE) 2,251 6.5 -19.7°
Sets 05:56:23 0° 22° (NNE) 3,176 7.4 -19.3°
